Zurück zum Katalog

STARLINK-4451

AktivKommunikationPO
NORAD 53492·PAYLOAD·🇺🇸 United States

Gestartet Aug 12, 2022 von Vandenberg Space Force Base

Loading…

Nächste Überflüge (nächste 24 Stunden)

TLE

AktuellSource: CelesTrak SupGP

Epoche: Sep 14, 2026, 21:34 UTC

1 53492C 22099AD  26257.89909722  .01011100  00000+0  68172-3 0  2570
2 53492  97.5965  27.7859 0005681 323.5583  31.2181 16.16300548    14

Verfolge STARLINK-4451 in Echtzeit mit AllMySat

Download on the App Store